Regional Weather Roundup
Issued by NWS Green Bay, WI

Home | Current Version | Previous Version | Text Only | Print | Product List | Glossary On
Versions: 1 2 3 4 5 6 7 8 9 10 11 12 13 14 15 16 17 18 19 20 21 22 23 24 25 26 27 28 29 30 31 32 33 34 35 36 37 38 39 40 41 42 43 44 45 46 47 48 49 50
000
ASUS43 KGRB 241600
RWRGRB

NORTH-CENTRAL AND NORTHEAST WISCONSIN REGIONAL WEATHER ROUNDUP
NATIONAL WEATHER SERVICE GREEN BAY WI
1100 AM CDT SAT SEP 24 2016

WIZ005-009-010>012-018-019-241700-
NORTH CENTRAL WISCONSIN

CITY           SKY/WX    TMP DP  RH WIND       PRES   REMARKS
IRONWOOD       CLOUDY    63  55  75 SE13      30.20F
MANITOWISH WTR NOT AVBL
ARBOR VITAE    NOT AVBL
EAGLE RIVER    NOT AVBL
LAND O LAKES   NOT AVBL
RHINELANDER    CLOUDY    62  56  80 S12       30.25F
PHILLIPS       NOT AVBL
ANTIGO         NOT AVBL
TOMAHAWK       NOT AVBL
MERRILL        NOT AVBL
$$

WIZ013-073-241700-
NORTHEAST WISCONSIN

CITY           SKY/WX    TMP DP  RH WIND       PRES   REMARKS
IRON MOUNTAIN  MOSUNNY   63  47  55 SE13      30.27F
MARINETTE      MOSUNNY   64  50  60 SE13      30.28F
$$

WIZ017-030-035>037-045-241700-
CENTRAL WISCONSIN

CITY           SKY/WX    TMP DP  RH WIND       PRES   REMARKS
MEDFORD        NOT AVBL
WAUSAU         CLOUDY    62  55  77 SE13      30.23F
MOSINEE        CLOUDY    61  57  88 SE9       30.25S
MARSHFIELD     CLOUDY    63  56  78 SE9       30.22S
WISC RAPIDS    CLOUDY    63  58  83 SE8       30.24S
STEVENS POINT  NOT AVBL
WAUPACA        NOT AVBL
SHAWANO        NOT AVBL
CLINTONVILLE   NOT AVBL
WAUTOMA        CLOUDY    65  57  75 E9        30.24F
$$

WIZ038-039-048-051-241700-
FOX VALLEY

CITY           SKY/WX    TMP DP  RH WIND       PRES   REMARKS
NWS GREEN BAY  MOSUNNY   65  56  72 E8        30.26F
APPLETON       PTSUNNY   63  52  67 E10       30.24S
OSHKOSH        CLOUDY    64  55  72 SE9       30.25R
FOND DU LAC    CLOUDY    64  56  75 E10       30.25R
$$

WIZ022-050-052-241700-
EAST CENTRAL WISCONSIN

CITY           SKY/WX    TMP DP  RH WIND       PRES   REMARKS
EPHRAIM        NOT AVBL
WASHINGTON ISL NOT AVBL
STURGEON BAY   PTSUNNY   64  51  62 SE12      30.29F
MANITOWOC      MOSUNNY   64  54  68 MISG      30.27F
SHEBOYGAN      CLOUDY    64  55  72 SE12      30.26S
$$

LMZ563-521-522-541>543-241700-
LAKESHORE

STATION/POSITION TIME  TEMP    WIND        PRES    VSBY  WAVE
                       AIR SEA DIR/SP/G                  HT/PER
                 (UTC) (F)     (DEG/KT/KT) (MB)    (MI)  (FT/S)
SHEBOYGAN LKSHOR 1500   62     100/ 11/ 11 1024.3R
KEWAUNEE LKSHORE 1500   62     120/ 10/ 13 1024.9R
NORTHPORT PIER   1500   61     130/ 11/ 15 1025.7F
N MID LAKE BUOY  1450   60 68  140/ 12/ 14 1026.1R         2/ 3
S GREEN BAY BUOY 1500   62 66  120/ 12/ 14 1024.8F
SISTER BAY LKSHO 1453   63     140/  9/ 12   N/A
CHAMBERS ISLAND  1500   62      90/  8/ 10 1025.4F
MENOMINEE LKSHOR 1500   62     110/ 11/ 13 1024.8F
$$



USA.gov is the U.S. government's official web portal to all federal, state and local government web resources and services.